| time (UTC) | temp F | wind direction | speed knots | gust knots | rain 1hr in | rain 24hr in | rain mn in | humidity % | barometer mb |
| 20260507211005 | 57 | 73 | 1.7 | 4.3 | 0.00 | 0.01 | 0.01 | 80 | 1021.3 |
| 20260507205004 | 57 | 187 | 1.7 | 7.0 | 0.00 | 0.01 | 0.01 | 79 | 1021.3 |
| 20260507204005 | 57 | 225 | 2.6 | 7.0 | 0.01 | 0.01 | 0.01 | 81 | 1021.3 |
| 20260507203005 | 57 | 150 | 4.3 | 5.2 | 0.01 | 0.01 | 0.01 | 82 | 1021.3 |
| 20260507202005 | 57 | 165 | 3.5 | 5.2 | 0.01 | 0.01 | 0.01 | 82 | 1021.2 |
| 20260507201005 | 57 | 189 | 1.7 | 2.6 | 0.01 | 0.01 | 0.01 | 83 | 1021.3 |
| 20260507200005 | 58 | 99 | 0.9 | 4.3 | 0.01 | 0.01 | 0.01 | 83 | 1021.0 |
| 20260507195005 | 58 | 167 | 2.6 | 7.0 | 0.01 | 0.01 | 0.01 | 79 | 1021.0 |
| 20260507193005 | 59 | 261 | 2.6 | 4.3 | 0.00 | 0.00 | 0.00 | 77 | 1020.7 |
| 20260507192005 | 59 | 197 | 1.7 | 2.6 | 0.00 | 0.00 | 0.00 | 76 | 1020.7 |
| 20260507190005 | 59 | 232 | 1.7 | 2.6 | 0.00 | 0.00 | 0.00 | 77 | 1020.0 |
| 20260507180005 | 59 | 156 | 2.6 | 4.3 | 0.00 | 0.00 | 0.00 | 78 | 1020.0 |
| 20260507175005 | 60 | 151 | 1.7 | 4.3 | 0.00 | 0.00 | 0.00 | 76 | 1020.0 |
| 20260507171005 | 63 | 144 | 0.9 | 1.7 | 0.00 | 0.00 | 0.00 | 67 | 1019.3 |
| 20260507170005 | 63 | 144 | 0.9 | 1.7 | 0.00 | 0.00 | 0.00 | 67 | 1019.0 |
| 20260507165004 | 63 | 111 | 1.7 | 6.1 | 0.00 | 0.00 | 0.00 | 67 | 1019.0 |
| 20260507164005 | 64 | 155 | 2.6 | 6.1 | 0.00 | 0.00 | 0.00 | 65 | 1019.0 |
| 20260507162005 | 65 | 279 | 1.7 | 1.7 | 0.00 | 0.00 | 0.00 | 55 | 1019.0 |
| 20260507153004 | 68 | 23 | 2.6 | 5.2 | 0.00 | 0.00 | 0.00 | 48 | 1018.3 |
| 20260507152005 | 68 | 216 | 2.6 | 6.1 | 0.00 | 0.00 | 0.00 | 48 | 1018.3 |
| 20260507151005 | 68 | 186 | 4.3 | 6.1 | 0.00 | 0.00 | 0.00 | 48 | 1018.3 |
| 20260507150005 | 69 | 191 | 2.6 | 4.3 | 0.00 | 0.00 | 0.00 | 46 | 1018.3 |
| 20260507145005 | 70 | 192 | 2.6 | 5.2 | 0.00 | 0.00 | 0.00 | 44 | 1017.9 |
| 20260507143004 | 70 | 92 | 1.7 | 2.6 | 0.00 | 0.00 | 0.00 | 44 | 1018.3 |
| 20260507142005 | 69 | 149 | 1.7 | 4.3 | 0.00 | 0.00 | 0.00 | 44 | 1018.3 |
| 20260507141006 | 71 | 110 | 2.6 | 4.3 | 0.00 | 0.00 | 0.00 | 44 | 1018.3 |
| 20260507134004 | 71 | 3 | 0.9 | 7.0 | 0.00 | 0.00 | 0.00 | 41 | 1018.1 |
| 20260507132005 | 72 | 157 | 1.7 | 2.6 | 0.00 | 0.00 | 0.00 | 41 | 1018.3 |
| 20260507131005 | 72 | 77 | 0.9 | 2.6 | 0.00 | 0.00 | 0.00 | 42 | 1018.3 |
| 20260507130005 | 71 | 122 | 1.7 | 2.6 | 0.00 | 0.00 | 0.00 | 43 | 1018.3 |
| 20260507124005 | 70 | 294 | 2.6 | 4.3 | 0.00 | 0.00 | 0.00 | 45 | 1018.6 |
| 20260507123005 | 70 | 204 | 1.7 | 5.2 | 0.00 | 0.00 | 0.00 | 45 | 1018.6 |
| 20260507121005 | 69 | 332 | 3.5 | 6.1 | 0.00 | 0.00 | 0.00 | 46 | 1018.6 |
| 20260507113005 | 70 | 134 | 0.9 | 7.0 | 0.00 | 0.00 | 0.00 | 45 | 1019.0 |
| 20260507112005 | 70 | 336 | 5.2 | 7.0 | 0.00 | 0.00 | 0.00 | 44 | 1019.0 |
| 20260507111005 | 69 | 325 | 1.7 | 7.0 | 0.00 | 0.00 | 0.00 | 47 | 1019.0 |
| 20260507110005 | 68 | 194 | 1.7 | 1.7 | 0.00 | 0.00 | 0.00 | 48 | 1019.3 |
| 20260507105004 | 66 | 103 | 1.7 | 5.2 | 0.00 | 0.00 | 0.00 | 50 | 1019.3 |
| 20260507104005 | 66 | 209 | 1.7 | 5.2 | 0.00 | 0.00 | 0.00 | 51 | 1019.6 |
| 20260507103004 | 67 | 169 | 0.9 | 1.7 | 0.00 | 0.00 | 0.00 | 51 | 1019.6 |
| 20260507102006 | 66 | 35 | 1.7 | 2.6 | 0.00 | 0.00 | 0.00 | 53 | 1019.6 |
| 20260507101004 | 66 | 236 | 1.7 | 2.6 | 0.00 | 0.00 | 0.00 | 50 | 1019.6 |
| 20260507100005 | 66 | 124 | 0.9 | 2.6 | 0.00 | 0.00 | 0.00 | 50 | 1020.0 |
| 20260507093005 | 66 | 283 | 1.7 | 2.6 | 0.00 | 0.00 | 0.00 | 50 | 1019.3 |
| 20260507092004 | 64 | 284 | 0.9 | 2.6 | 0.00 | 0.00 | 0.00 | 53 | 1019.3 |
| 20260507091005 | 64 | 141 | 1.7 | 2.6 | 0.00 | 0.00 | 0.00 | 54 | 1019.3 |
| 20260507090006 | 64 | 177 | 2.6 | 7.0 | 0.00 | 0.00 | 0.00 | 53 | 1019.0 |
| 20260507085005 | 64 | 324 | 5.2 | 7.0 | 0.00 | 0.00 | 0.00 | 54 | 1019.3 |
| 20260507084005 | 64 | 251 | 1.7 | 4.3 | 0.00 | 0.00 | 0.00 | 53 | 1019.0 |
| 20260507082004 | 63 | 103 | 1.7 | 6.1 | 0.00 | 0.00 | 0.00 | 55 | 1018.6 |
| 20260507081005 | 63 | 239 | 4.3 | 6.1 | 0.00 | 0.00 | 0.00 | 55 | 1019.0 |
| 20260507080005 | 62 | 45 | 0.9 | 2.6 | 0.00 | 0.00 | 0.00 | 56 | 1018.6 |
| 20260507075004 | 62 | 102 | 1.7 | 2.6 | 0.00 | 0.00 | 0.00 | 57 | 1018.6 |
| 20260507074004 | 62 | 91 | 0.9 | 1.7 | 0.00 | 0.00 | 0.00 | 57 | 1018.3 |
| 20260507073004 | 62 | 58 | 0.9 | 7.8 | 0.00 | 0.00 | 0.00 | 59 | 1018.3 |
| 20260507072005 | 60 | 238 | 5.2 | 7.8 | 0.00 | 0.00 | 0.00 | 61 | 1017.9 |
| 20260507071005 | 60 | 238 | 5.2 | 7.8 | 0.00 | 0.00 | 0.00 | 61 | 1018.0 |
| 20260507070009 | 60 | 269 | 0.9 | 6.1 | 0.00 | 0.00 | 0.00 | 62 | 1017.9 |
| 20260507065004 | 60 | 297 | 2.6 | 6.1 | 0.00 | 0.00 | 0.00 | 62 | 1017.8 |
| 20260507064005 | 59 | 75 | 2.6 | 7.0 | 0.00 | 0.00 | 0.00 | 62 | 1017.6 |
| 20260507063005 | 59 | 272 | 4.3 | 10.4 | 0.00 | 0.00 | 0.00 | 62 | 1017.6 |
| 20260507060005 | 59 | 297 | 3.5 | 13.9 | 0.00 | 0.00 | 0.00 | 63 | 1017.6 |
| 20260507055005 | 59 | 17 | 6.1 | 13.9 | 0.00 | 0.00 | 0.00 | 63 | 1017.3 |
| 20260507053005 | 59 | 272 | 2.6 | 5.2 | 0.00 | 0.00 | 0.00 | 64 | 1016.9 |
| 20260507051004 | 58 | 4 | 6.1 | 14.8 | 0.00 | 0.00 | 0.00 | 64 | 1016.9 |
| 20260507050005 | 58 | 238 | 6.1 | 11.3 | 0.00 | 0.00 | 0.00 | 64 | 1016.6 |
| 20260507045005 | 58 | 236 | 0.9 | 6.1 | 0.00 | 0.00 | 0.00 | 64 | 1016.6 |
| 20260507044005 | 58 | 14 | 4.3 | 8.7 | 0.00 | 0.00 | 0.00 | 65 | 1016.6 |
| 20260507042005 | 58 | 315 | 6.1 | 7.8 | 0.00 | 0.00 | 0.00 | 65 | 1015.9 |
| 20260507040005 | 58 | 332 | 5.2 | 11.3 | 0.00 | 0.00 | 0.00 | 65 | 1015.9 |
| 20260507035004 | 58 | 264 | 2.6 | 10.4 | 0.00 | 0.00 | 0.00 | 65 | 1015.9 |
| 20260507034005 | 58 | 302 | 7.0 | 12.2 | 0.00 | 0.00 | 0.00 | 65 | 1015.6 |
| 20260507033005 | 58 | 336 | 2.6 | 11.3 | 0.00 | 0.00 | 0.00 | 65 | 1016.3 |
| 20260507032004 | 58 | 350 | 6.1 | 10.4 | 0.00 | 0.00 | 0.00 | 65 | 1015.9 |
| 20260507031005 | 59 | 24 | 5.2 | 8.7 | 0.00 | 0.00 | 0.00 | 65 | 1015.9 |
| 20260507030005 | 59 | 296 | 6.1 | 8.7 | 0.00 | 0.00 | 0.00 | 65 | 1015.9 |
| 20260507024005 | 59 | 218 | 6.1 | 12.2 | 0.00 | 0.00 | 0.00 | 65 | 1015.6 |
| 20260507022005 | 59 | 288 | 4.3 | 7.0 | 0.00 | 0.00 | 0.00 | 66 | 1015.6 |
| 20260507020005 | 60 | 261 | 5.2 | 7.0 | 0.00 | 0.00 | 0.00 | 67 | 1015.6 |
| 20260507014004 | 60 | 177 | 4.3 | 6.1 | 0.00 | 0.00 | 0.00 | 69 | 1015.2 |
| 20260507013005 | 60 | 81 | 2.6 | 4.3 | 0.00 | 0.00 | 0.00 | 68 | 1015.6 |
| 20260507012005 | 60 | 275 | 1.7 | 4.3 | 0.00 | 0.00 | 0.00 | 68 | 1015.6 |
| 20260507011004 | 60 | 220 | 1.7 | 7.0 | 0.00 | 0.00 | 0.00 | 68 | 1015.2 |
| 20260507003004 | 61 | 13 | 2.6 | 6.1 | 0.00 | 0.00 | 0.00 | 67 | 1014.9 |
| 20260507002004 | 61 | 335 | 4.3 | 13.0 | 0.00 | 0.00 | 0.00 | 67 | 1014.9 |
| 20260507000005 | 62 | 32 | 4.3 | 7.8 | 0.00 | 0.00 | 0.00 | 67 | 1014.6 |
| 20260506233005 | 62 | 264 | 2.6 | 5.2 | 0.00 | 0.00 | 0.00 | 71 | 1014.6 |
| 20260506232004 | 62 | 258 | 5.2 | 10.4 | 0.00 | 0.00 | 0.00 | 71 | 1014.2 |
| 20260506231004 | 62 | 259 | 5.2 | 12.2 | 0.00 | 0.00 | 0.00 | 71 | 1014.6 |
| 20260506224005 | 64 | 321 | 2.6 | 7.0 | 0.00 | 0.00 | 0.00 | 64 | 1013.9 |
| 20260506223005 | 64 | 267 | 3.5 | 7.8 | 0.00 | 0.00 | 0.00 | 64 | 1013.5 |
| 20260506222005 | 64 | 24 | 2.6 | 7.0 | 0.00 | 0.00 | 0.00 | 63 | 1013.2 |
| 20260506221005 | 64 | 242 | 2.6 | 4.3 | 0.00 | 0.00 | 0.00 | 62 | 1012.9 |
| 20260506215006 | 65 | 82 | 0.0 | 2.6 | 0.00 | 0.00 | 0.00 | 63 | 1012.5 |